Regional Weather Roundup
Issued by NWS

Home | Current Version | Previous Version | Text Only | Print | Product List | Glossary On
Versions: 1 2 3 4 5 6 7 8 9 10 11 12 13 14 15 16 17 18 19 20 21 22 23 24 25 26 27 28 29 30 31 32 33 34 35 36 37 38 39 40 41 42 43 44 45 46 47 48 49 50
000
ASUS43 KFSD 280302
RWRSD

WEATHER ROUNDUP FOR SOUTH DAKOTA
NATIONAL WEATHER SERVICE SIOUX FALLS SD
1000 PM CDT MON JUL 27 2015

NOTE: "FAIR" INDICATES FEW OR NO CLOUDS BELOW 12,000 FEET WITH NO
SIGNIFICANT WEATHER AND/OR OBSTRUCTIONS TO VISIBILITY.


SDZ001>005-009-010-012>017-280400-
NORTHWEST AND NORTH CENTRAL SOUTH DAKOTA

CITY           SKY/WX    TMP DP  RH WIND       PRES   REMARKS
FAITH            N/A     71  58  63 SE26G33   29.66F
MOBRIDGE       CLOUDY    82  76  81 SE13      29.69R
$$

SDZ012>016-024>037-041>051-057-063-072>074-280400-
SOUTHWEST AND SOUTH CENTRAL SOUTH DAKOTA

CITY           SKY/WX    TMP DP  RH WIND       PRES   REMARKS
RAPID CTY ARPT CLOUDY    66  63  90 NW13      29.70R
PIERRE         PTCLDY    84  69  60 SE12      29.64S
CUSTER         MOCLDY    56  54  93 CALM      29.87S
ELLSWORTH AFB  CLOUDY    66  64  93 W9        29.69F
PHILIP         TSTM      68  66  93 N15       29.72R
PINE RIDGE     CLOUDY    69  60  73 E8        29.70F
WINNER         FAIR      86  70  58 SE16      29.68F
$$

SDZ004>011-016>023-039-040-280400-
NORTHEAST SOUTH DAKOTA

CITY           SKY/WX    TMP DP  RH WIND       PRES   REMARKS
ABERDEEN       CLEAR     80  71  74 SE10      29.73R
WATERTOWN      CLEAR     77  70  79 SE7       29.81R
BROOKINGS      CLEAR     77  72  83 SE12      29.83R
$$

SDZ017-020-022-023-036>040-048>070-280400-
SOUTHEAST SOUTH DAKOTA

CITY           SKY/WX    TMP DP  RH WIND       PRES   REMARKS
SIOUX FALLS    PTCLDY    80  73  79 S16G23    29.81R
HURON          CLEAR     80  75  84 SE10      29.74R
MITCHELL       CLEAR     81  71  71 SE9       29.75R
YANKTON        PTCLDY    81  73  78 SE17G24   29.77R
$$

ABBREVIATIONS USED IN REMARKS
   TC - TEMPERATURE IN CELSIUS
  WCI - WIND CHILL INDEX
   HX - HEAT INDEX
  VSB - VISIBILITY



USA.gov is the U.S. government's official web portal to all federal, state and local government web resources and services.